Flight Track Log - Related Links

Times and Time Zones

All times are in EDT time to prevent confusion due to time zone crossing. See the ASQ4209 flight status page for this flight to view local times or setup timezone preferences in your user account.

Time Position Orientation Groundspeed Altitude Reporting Facility
EDT Latitude Longitude Course Direction KTS MPH feet Rate Location/Type
09:07AM 41.4214 -81.8375 75° East 161 185 1,900  Level Cleveland Center
09:08AM 41.4489 -81.8158 31° Northeast 198 228 2,800 2,496 Climbing Cleveland Center
09:09AM 41.5203 -81.7589 31° Northeast 251 289 6,600 3,044 Climbing Cleveland Center
09:10AM 41.6492 -81.6009 37° Northeast  Level FlightAware Approximate
09:10AM 41.5772 -81.7017 37° Northeast 251 289 9,700  Level Cleveland Center
09:11AM 41.7330 -81.5170 37° Northeast  Level FlightAware Approximate
09:11AM 41.6258 -81.6414 43° Northeast 257 296 11,600  Level Cleveland Center
09:12AM 41.8168 -81.4332 37° Northeast  Level FlightAware Approximate
09:12AM 41.6519 -81.5142 75° East 303 349 12,700  Level Cleveland Center
09:13AM 41.8487 -81.3067 75° East  Level FlightAware Approximate
09:13AM 41.6758 -81.3783 77° East 358 412 14,600  Level Cleveland Center
09:14AM 41.7039 -81.2339 75° East 389 448 16,000 1,250 Climbing Cleveland Center
09:15AM 41.7339 -81.0672 76° East 407 468 17,100 1,050 Climbing Cleveland Center
09:16AM 41.7636 -80.9117 76° East 419 482 18,100 1,300 Climbing Cleveland Center
09:17AM 41.7931 -80.7558 76° East 426 490 19,700 1,600 Climbing Cleveland Center
09:18AM 41.8225 -80.5997 76° East 431 496 21,300 1,600 Climbing Cleveland Center
09:19AM 41.8494 -80.4439 77° East 431 496 22,900 1,600 Climbing Cleveland Center
09:20AM 41.8803 -80.2819 76° East 431 496 24,500 1,550 Climbing Cleveland Center
09:21AM 41.9069 -80.1256 77° East 431 496 26,000 1,550 Climbing Cleveland Center
09:22AM 41.9356 -79.9692 76° East 431 496 27,600 1,450 Climbing Cleveland Center
09:23AM 41.9636 -79.8153 76° East 426 490 28,900 1,150 Climbing Cleveland Center
09:24AM 41.9917 -79.6556 77° East 431 496 29,900 1,000 Climbing Cleveland Center
09:25AM 42.0172 -79.4903 78° East 436 502 30,900 550 Climbing Cleveland Center
09:26AM 42.0489 -79.3192 76° East 449 517 31,000 50 Climbing Cleveland Center
09:27AM 42.0761 -79.1425 78° East 465 535 31,000  Level Cleveland Center
09:28AM 42.1092 -78.9625 76° East 475 547 31,000  Level Cleveland Center
09:29AM 42.1378 -78.7828 78° East 480 552 31,000  Level Cleveland Center
09:30AM 42.1661 -78.6083 78° East 485 558 31,000  Level Cleveland Center
09:31AM 42.1944 -78.4503 76° East 485 558 31,000  Level Cleveland Center
09:32AM 42.2203 -78.2756 79° East 480 552 31,000  Level Cleveland Center
09:33AM 42.2500 -78.0978 77° East 475 547 31,000  Level Cleveland Center
09:34AM 42.2775 -77.9228 78° East 475 547 31,000 -700 Level Cleveland Center
09:35AM 42.3064 -77.7419 78° East 469 540 29,600 -574 Descending Cleveland Center
09:38AM 42.3708 -77.3111 78° East 479 551 29,000 -172 Descending Boston Center
09:39AM 42.3972 -77.1333 79° East 479 551 29,000  Level Boston Center
09:40AM 42.4228 -76.9606 79° East 479 551 29,000  Level Boston Center
09:41AM 42.4483 -76.7881 79° East 474 545 29,000  Level Boston Center
09:42AM 42.4739 -76.6122 79° East 474 545 29,000  Level Boston Center
09:43AM 42.4989 -76.4394 79° East 469 540 29,000  Level Boston Center
09:44AM 42.5217 -76.2633 80° East 469 540 29,000  Level Boston Center
09:45AM 42.5397 -76.0867 82° East 469 540 29,000  Level Boston Center
09:46AM 42.5578 -75.9158 82° East 464 534 29,000 -50 Level Boston Center
09:47AM 42.5733 -75.7447 83° East 464 534 28,900 -1,250 Descending Boston Center
09:48AM 42.5906 -75.5792 82° East 456 525 26,500 -2,450 Descending Boston Center
09:49AM 42.6050 -75.4247 83° East 436 502 24,000 -2,350 Descending Boston Center
09:50AM 42.6194 -75.2675 83° East 422 486 21,800 -2,100 Descending Boston Center
09:51AM 42.6336 -75.1183 83° East 411 473 19,800 -1,950 Descending Boston Center
09:52AM 42.6475 -74.9581 83° East 406 467 17,900 -2,188 Descending Boston Center
09:52AM 42.6561 -74.8597 83° East 405 466 16,300 -2,400 Descending Boston Center
09:53AM 42.6611 -74.8147 81° East 400 460 15,500 -2,667 Descending Boston Center
09:53AM 42.6739 -74.6936 82° East 355 409 13,100 -2,477 Descending Boston Center
09:54AM 42.6850 -74.5583 84° East 356 410 11,000 -1,140 Descending Boston Center
09:55AM 42.6786 -74.4425 94° East 295 339 10,800 -942 Descending Boston Center
09:56AM 42.6578 -74.3344 105° East 280 322 9,100 -1,475 Descending Boston Center
09:57AM 42.6386 -74.2294 104° East 267 307 7,800 -1,537 Descending Boston Center
09:58AM 42.6211 -74.1386 105° East 244 281 6,000 -1,860 Descending Boston Center
10:00AM 42.5997 -74.0308 105° East 258 297 3,800 -1,230 Descending Boston Center
10:00AM 42.5822 -73.9431 105° East 279 321 3,500 -400 Descending Boston Center
10:02AM 42.5669 -73.8356 101° East 255 293 3,000 -694 Descending Boston Center
10:02AM 42.6006 -73.8025 36° Northeast 193 222 2,100 -1,000 Descending Boston Center

Login

Don't have an account? Register now (free) for customized features, flight alerts, and more!